This is the latest recevied weather packets stored in our database for station/object JA6CFI-13. If no packets are shown the sender has not sent any weather packets the latest 10 day(s).
| Time | Temp. | Humidity | Pressure | Rain* | Wind** | Luminosity | Snow |
|---|---|---|---|---|---|---|---|
| 1788161671 | 92° F | 67% | 756.4 mmHg | 0 in | - | - | - |
| 1788160891 | 93° F | 66% | 756.3 mmHg | 0 in | - | - | - |
| 1788160322 | 92° F | 66% | 756.3 mmHg | 0 in | - | - | - |
| 1788160111 | 92° F | 66% | 756.3 mmHg | 0 in | - | - | - |
| 1788159331 | 92° F | 67% | 756.4 mmHg | 0 in | - | - | - |
| 1788158551 | 90° F | 75% | 756.2 mmHg | 0 in | - | - | - |
| 1788158521 | 90° F | 75% | 756.2 mmHg | 0 in | - | - | - |
| 1788157773 | 90° F | 74% | 756.2 mmHg | 0 in | - | - | - |
| 1788156993 | 91° F | 70% | 756.3 mmHg | 0 in | - | - | - |
| 1788156721 | 92° F | 70% | 756.3 mmHg | 0 in | - | - | - |
| 1788156212 | 92° F | 69% | 756.3 mmHg | 0 in | - | - | - |
| 1788155432 | 92° F | 68% | 756.2 mmHg | 0 in | - | - | - |
| 1788154921 | 92° F | 68% | 756.1 mmHg | 0 in | - | - | - |
| 1788154652 | 92° F | 67% | 756.1 mmHg | 0 in | - | - | - |
| 1788153872 | 94° F | 66% | 756.1 mmHg | 0 in | - | - | - |
| 1788153121 | 95° F | 65% | 756.1 mmHg | 0 in | - | - | - |
| 1788153092 | 95° F | 65% | 756.1 mmHg | 0 in | - | - | - |
| 1788152312 | 94° F | 67% | 756.1 mmHg | 0 in | - | - | - |
| 1788151532 | 93° F | 68% | 756.1 mmHg | 0 in | - | - | - |
| 1788151322 | 93° F | 68% | 756.2 mmHg | 0 in | - | - | - |
| 1788150752 | 94° F | 68% | 756.3 mmHg | 0 in | - | - | - |
| 1788149972 | 94° F | 68% | 756.3 mmHg | 0 in | - | - | - |
| 1788149522 | 93° F | 69% | 756.3 mmHg | 0 in | - | - | - |
| 1788149192 | 93° F | 70% | 756.4 mmHg | 0 in | - | - | - |
| 1788148412 | 94° F | 68% | 756.4 mmHg | 0 in | - | - | - |
* Rain latest hour (hover to see other rain measurements)
** Current wind speed in m/s (hover to see current wind gust speed)